Location: Pedholt
(56.0260°N, 10.2097°E)
Time: 07:37:18
(UTC+00:00)

SR - Pass Details

Date: 30 July 2021
Orbit: 581 x 874 km, 66.7° (Epoch: 24 September)

Event Time Altitude Azimuth Distance (km) Brightness Sun altitude
Rises 12:18:40 0° 311° (NW) 3,259 ? 51.0°
Reaches altitude 10° 12:21:18 10° 319° (NW) 2,279 ? 50.9°
Maximum altitude 12:26:11 40° 29° (NNE) 1,038 ? 50.7°
Drops below altitude 10° 12:30:40 10° 99° (E) 2,090 ? 50.4°
Sets 12:33:00 0° 107° (ESE) 2,956 ? 50.3°
